owner,sensor,date,latitude,longitude,vertical_datum,sea_water_speed,direction_of_sea_water_velocity,upward_sea_water_velocity,qcFlag
Shell,ioos:station:wmo:42873:2,2024-04-01T00:01:00Z,28.0090,-89.1628,11.0,22.6,11111222
Shell,ioos:station:wmo:42873:2,2024-04-01T00:11:00Z,28.0090,-89.1626,11.0,22.6,11111222
Shell,ioos:station:wmo:42873:2,2024-04-01T00:21:00Z,28.0090,-89.1625,11.0,22.7,11111222
Shell,ioos:station:wmo:42873:2,2024-04-01T00:31:00Z,28.0089,-89.1627,11.0,22.8,11111222
Shell,ioos:station:wmo:42873:2,2024-04-01T00:41:00Z,28.0089,-89.1627,11.0,22.9,11111222
Shell,ioos:station:wmo:42873:2,2024-04-01T00:51:00Z,28.0089,-89.1628,11.0,22.8,11111222
Shell,ioos:station:wmo:42873:2,2024-04-01T01:01:00Z,28.0090,-89.1628,11.0,22.8,11111222
Shell,ioos:station:wmo:42873:2,2024-04-01T01:11:00Z,28.0090,-89.1628,11.0,22.8,11111222
Shell,ioos:station:wmo:42873:2,2024-04-01T01:21:00Z,28.0090,-89.1628,11.0,23.0,11111222
Shell,ioos:station:wmo:42873:2,2024-04-01T01:31:00Z,28.0089,-89.1628,11.0,22.9,11111222
Shell,ioos:station:wmo:42873:2,2024-04-01T01:41:00Z,28.0090,-89.1629,11.0,22.7,11111222
Shell,ioos:station:wmo:42873:2,2024-04-01T01:51:00Z,28.0087,-89.1632,11.0,22.8,11111222
Shell,ioos:station:wmo:42873:2,2024-04-01T02:01:00Z,28.0088,-89.1628,11.0,22.9,11111222
Shell,ioos:station:wmo:42873:2,2024-04-01T02:11:00Z,28.0088,-89.1630,11.0,22.8,11111222
Shell,ioos:station:wmo:42873:2,2024-04-01T02:21:00Z,28.0088,-89.1630,11.0,22.7,11111222
Shell,ioos:station:wmo:42873:2,2024-04-01T02:31:00Z,28.0090,-89.1624,11.0,22.6,11111222
Shell,ioos:station:wmo:42873:2,2024-04-01T02:41:00Z,28.0082,-89.1644,11.0,22.7,11111222
Shell,ioos:station:wmo:42873:2,2024-04-01T02:51:00Z,28.0089,-89.1627,11.0,22.7,11111222
Shell,ioos:station:wmo:42873:2,2024-04-01T03:01:00Z,28.0089,-89.1628,11.0,22.6,11111222
Shell,ioos:station:wmo:42873:2,2024-04-01T03:11:00Z,28.0090,-89.1627,11.0,22.6,11111222
Shell,ioos:station:wmo:42873:2,2024-04-01T03:21:00Z,28.0090,-89.1627,11.0,22.6,11111222
Shell,ioos:station:wmo:42873:2,2024-04-01T03:31:00Z,28.0089,-89.1629,11.0,22.7,11111222
Shell,ioos:station:wmo:42873:2,2024-04-01T03:41:00Z,28.0090,-89.1626,11.0,22.7,11111222
Shell,ioos:station:wmo:42873:2,2024-04-01T03:51:00Z,28.0090,-89.1627,11.0,22.8,11111222
Shell,ioos:station:wmo:42873:2,2024-04-01T04:01:00Z,28.0090,-89.1630,11.0,22.9,11111222
Shell,ioos:station:wmo:42873:2,2024-04-01T04:11:00Z,28.0091,-89.1631,11.0,23.0,11111222
Shell,ioos:station:wmo:42873:2,2024-04-01T04:21:00Z,28.0090,-89.1628,11.0,23.1,11111222
Shell,ioos:station:wmo:42873:2,2024-04-01T04:31:00Z,28.0089,-89.1628,11.0,23.1,11111222
Shell,ioos:station:wmo:42873:2,2024-04-01T04:41:00Z,28.0089,-89.1627,11.0,23.2,11111222
Shell,ioos:station:wmo:42873:2,2024-04-01T04:51:00Z,28.0090,-89.1627,11.0,23.2,11111222
Shell,ioos:station:wmo:42873:2,2024-04-01T05:01:00Z,28.0089,-89.1627,11.0,23.2,11111222
Shell,ioos:station:wmo:42873:2,2024-04-01T05:11:00Z,28.0088,-89.1630,11.0,23.2,11111222
Shell,ioos:station:wmo:42873:2,2024-04-01T05:21:00Z,28.0089,-89.1629,11.0,23.1,11111222
Shell,ioos:station:wmo:42873:2,2024-04-01T05:31:00Z,28.0090,-89.1627,11.0,23.1,11111222
Shell,ioos:station:wmo:42873:2,2024-04-01T05:41:00Z,28.0090,-89.1626,11.0,23.1,11111222
Shell,ioos:station:wmo:42873:2,2024-04-01T05:51:00Z,28.0090,-89.1629,11.0,23.2,11111222
Shell,ioos:station:wmo:42873:2,2024-04-01T06:01:00Z,28.0090,-89.1627,11.0,23.2,11111222
Shell,ioos:station:wmo:42873:2,2024-04-01T06:11:00Z,28.0090,-89.1627,11.0,23.3,11111222
Shell,ioos:station:wmo:42873:2,2024-04-01T06:21:00Z,28.0091,-89.1629,11.0,23.3,11111222
Shell,ioos:station:wmo:42873:2,2024-04-01T06:31:00Z,28.0092,-89.1631,11.0,23.4,11111222
Shell,ioos:station:wmo:42873:2,2024-04-01T06:41:00Z,28.0092,-89.1630,11.0,23.4,11111222
Shell,ioos:station:wmo:42873:2,2024-04-01T06:51:00Z,28.0091,-89.1628,11.0,23.4,11111222
Shell,ioos:station:wmo:42873:2,2024-04-01T07:01:00Z,28.0091,-89.1628,11.0,23.5,11111222
Shell,ioos:station:wmo:42873:2,2024-04-01T07:11:00Z,28.0092,-89.1631,11.0,23.5,11111222
Shell,ioos:station:wmo:42873:2,2024-04-01T07:21:00Z,28.0091,-89.1628,11.0,23.5,11111222
Shell,ioos:station:wmo:42873:2,2024-04-01T07:31:00Z,28.0093,-89.1632,11.0,23.5,11111222
Shell,ioos:station:wmo:42873:2,2024-04-01T07:41:00Z,28.0091,-89.1628,11.0,23.5,11111222
Shell,ioos:station:wmo:42873:2,2024-04-01T07:51:00Z,28.0092,-89.1628,11.0,23.6,11111222
Shell,ioos:station:wmo:42873:2,2024-04-01T08:01:00Z,28.0092,-89.1629,11.0,23.6,11111222
Shell,ioos:station:wmo:42873:2,2024-04-01T08:11:00Z,28.0091,-89.1627,11.0,23.6,11111222
Shell,ioos:station:wmo:42873:2,2024-04-01T08:21:00Z,28.0092,-89.1628,11.0,23.6,11111222
Shell,ioos:station:wmo:42873:2,2024-04-01T08:31:00Z,28.0093,-89.1632,11.0,23.6,11111222
Shell,ioos:station:wmo:42873:2,2024-04-01T08:41:00Z,28.0091,-89.1629,11.0,23.6,11111222
Shell,ioos:station:wmo:42873:2,2024-04-01T08:51:00Z,28.0091,-89.1628,11.0,23.6,11111222
Shell,ioos:station:wmo:42873:2,2024-04-01T09:01:00Z,28.0090,-89.1625,11.0,23.6,11111222
Shell,ioos:station:wmo:42873:2,2024-04-01T09:11:00Z,28.0090,-89.1628,11.0,23.6,11111222
Shell,ioos:station:wmo:42873:2,2024-04-01T09:21:00Z,28.0090,-89.1627,11.0,23.6,11111222
Shell,ioos:station:wmo:42873:2,2024-04-01T09:31:00Z,28.0087,-89.1627,11.0,23.7,11111222
Shell,ioos:station:wmo:42873:2,2024-04-01T09:41:00Z,28.0093,-89.1629,11.0,23.6,11111222
Shell,ioos:station:wmo:42873:2,2024-04-01T09:51:00Z,28.0091,-89.1631,11.0,23.7,11111222
Shell,ioos:station:wmo:42873:2,2024-04-01T10:01:00Z,26.2310,-94.7285,11.0,23.6,11111222
Shell,ioos:station:wmo:42873:2,2024-04-01T10:11:00Z,28.0090,-89.1630,11.0,23.7,11111222
Shell,ioos:station:wmo:42873:2,2024-04-01T10:21:00Z,28.0094,-89.1632,11.0,23.7,11111222
Shell,ioos:station:wmo:42873:2,2024-04-01T10:31:00Z,28.0090,-89.1627,11.0,23.7,11111222
Shell,ioos:station:wmo:42873:2,2024-04-01T10:41:00Z,28.0092,-89.1630,11.0,23.7,11111222
Shell,ioos:station:wmo:42873:2,2024-04-01T10:51:00Z,28.0091,-89.1630,11.0,23.7,11111222
Shell,ioos:station:wmo:42873:2,2024-04-01T11:01:00Z,28.0091,-89.1629,11.0,23.6,11111222
Shell,ioos:station:wmo:42873:2,2024-04-01T11:11:00Z,28.0092,-89.1630,11.0,23.6,11111222
Shell,ioos:station:wmo:42873:2,2024-04-01T11:21:00Z,28.0091,-89.1629,11.0,23.6,11111222
Shell,ioos:station:wmo:42873:2,2024-04-01T11:31:00Z,28.0090,-89.1631,11.0,23.6,11111222
Shell,ioos:station:wmo:42873:2,2024-04-01T11:41:00Z,28.0090,-89.1614,11.0,23.6,11111222
Shell,ioos:station:wmo:42873:2,2024-04-01T11:51:00Z,28.0089,-89.1632,11.0,23.6,11111222
Shell,ioos:station:wmo:42873:2,2024-04-01T12:01:00Z,28.0089,-89.1634,11.0,23.5,11111222
Shell,ioos:station:wmo:42873:2,2024-04-01T12:11:00Z,28.0091,-89.1624,11.0,23.6,11111222
Shell,ioos:station:wmo:42873:2,2024-04-01T12:21:00Z,28.0091,-89.1625,11.0,23.5,11111222
Shell,ioos:station:wmo:42873:2,2024-04-01T12:31:00Z,28.0091,-89.1631,11.0,23.5,11111222
Shell,ioos:station:wmo:42873:2,2024-04-01T12:41:00Z,28.0092,-89.1629,11.0,23.5,11111222
Shell,ioos:station:wmo:42873:2,2024-04-01T12:51:00Z,28.0092,-89.1628,11.0,23.5,11111222
Shell,ioos:station:wmo:42873:2,2024-04-01T13:01:00Z,26.2310,-94.7285,11.0,23.5,11111222
Shell,ioos:station:wmo:42873:2,2024-04-01T13:11:00Z,28.0091,-89.1628,11.0,23.5,11111222
Shell,ioos:station:wmo:42873:2,2024-04-01T13:21:00Z,28.0090,-89.1628,11.0,23.4,11111222
Shell,ioos:station:wmo:42873:2,2024-04-01T13:31:00Z,28.0091,-89.1629,11.0,23.4,11111222
Shell,ioos:station:wmo:42873:2,2024-04-01T13:41:00Z,28.0092,-89.1632,11.0,23.4,11111222
Shell,ioos:station:wmo:42873:2,2024-04-01T13:51:00Z,28.0090,-89.1622,11.0,23.4,11111222
Shell,ioos:station:wmo:42873:2,2024-04-01T14:01:00Z,28.0091,-89.1628,11.0,23.4,11111222
Shell,ioos:station:wmo:42873:2,2024-04-01T14:11:00Z,28.0091,-89.1627,11.0,23.3,11111222
Shell,ioos:station:wmo:42873:2,2024-04-01T14:21:00Z,28.0091,-89.1626,11.0,23.3,11111222
Shell,ioos:station:wmo:42873:2,2024-04-01T14:31:00Z,28.0091,-89.1628,11.0,23.3,11111222
Shell,ioos:station:wmo:42873:2,2024-04-01T14:41:00Z,28.0089,-89.1627,11.0,23.3,11111222
Shell,ioos:station:wmo:42873:2,2024-04-01T14:51:00Z,28.0091,-89.1628,11.0,23.3,11111222
Shell,ioos:station:wmo:42873:2,2024-04-01T15:01:00Z,28.0092,-89.1621,11.0,23.2,11111222
Shell,ioos:station:wmo:42873:2,2024-04-01T15:11:00Z,28.0092,-89.1627,11.0,23.3,11111222
Shell,ioos:station:wmo:42873:2,2024-04-01T15:21:00Z,28.0091,-89.1628,11.0,23.3,11111222
Shell,ioos:station:wmo:42873:2,2024-04-01T15:31:00Z,28.0091,-89.1628,11.0,23.3,11111222
Shell,ioos:station:wmo:42873:2,2024-04-01T15:41:00Z,28.0091,-89.1627,11.0,23.2,11111222
Shell,ioos:station:wmo:42873:2,2024-04-01T15:51:00Z,28.0091,-89.1629,11.0,23.3,11111222
Shell,ioos:station:wmo:42873:2,2024-04-01T16:01:00Z,28.0091,-89.1628,11.0,23.2,11111222
Shell,ioos:station:wmo:42873:2,2024-04-01T16:11:00Z,28.0091,-89.1628,11.0,23.2,11111222
Shell,ioos:station:wmo:42873:2,2024-04-01T16:21:00Z,28.0091,-89.1628,11.0,23.2,11111222
Shell,ioos:station:wmo:42873:2,2024-04-01T16:31:00Z,28.0091,-89.1628,11.0,23.2,11111222
Shell,ioos:station:wmo:42873:2,2024-04-01T16:41:00Z,28.0091,-89.1628,11.0,23.2,11111222
Shell,ioos:station:wmo:42873:2,2024-04-01T16:51:00Z,28.0091,-89.1626,11.0,23.2,11111222
Shell,ioos:station:wmo:42873:2,2024-04-01T17:01:00Z,28.0092,-89.1628,11.0,23.2,11111222
Shell,ioos:station:wmo:42873:2,2024-04-01T17:11:00Z,28.0091,-89.1627,11.0,23.2,11111222
Shell,ioos:station:wmo:42873:2,2024-04-01T17:21:00Z,28.0090,-89.1628,11.0,23.2,11111222
Shell,ioos:station:wmo:42873:2,2024-04-01T17:31:00Z,28.0089,-89.1626,11.0,23.2,11111222
Shell,ioos:station:wmo:42873:2,2024-04-01T17:41:00Z,28.0095,-89.1630,11.0,23.2,11111222
Shell,ioos:station:wmo:42873:2,2024-04-01T17:51:00Z,28.0091,-89.1627,11.0,23.2,11111222
Shell,ioos:station:wmo:42873:2,2024-04-01T18:01:00Z,28.0091,-89.1627,11.0,23.2,11111222
Shell,ioos:station:wmo:42873:2,2024-04-01T18:11:00Z,28.0091,-89.1628,11.0,23.2,11111222
Shell,ioos:station:wmo:42873:2,2024-04-01T18:21:00Z,28.0091,-89.1628,11.0,23.1,11111222
Shell,ioos:station:wmo:42873:2,2024-04-01T18:31:00Z,28.0091,-89.1626,11.0,23.2,11111222
Shell,ioos:station:wmo:42873:2,2024-04-01T18:41:00Z,28.0091,-89.1627,11.0,23.2,11111222
Shell,ioos:station:wmo:42873:2,2024-04-01T18:51:00Z,28.0092,-89.1633,11.0,23.1,11111222
Shell,ioos:station:wmo:42873:2,2024-04-01T19:01:00Z,28.0092,-89.1630,11.0,23.1,11111222
Shell,ioos:station:wmo:42873:2,2024-04-01T19:11:00Z,28.0092,-89.1628,11.0,23.1,11111222
Shell,ioos:station:wmo:42873:2,2024-04-01T19:21:00Z,28.0091,-89.1628,11.0,23.1,11111222
Shell,ioos:station:wmo:42873:2,2024-04-01T19:31:00Z,28.0091,-89.1627,11.0,23.1,11111222
Shell,ioos:station:wmo:42873:2,2024-04-01T19:41:00Z,28.0092,-89.1628,11.0,23.1,11111222
Shell,ioos:station:wmo:42873:2,2024-04-01T19:51:00Z,28.0093,-89.1633,11.0,23.1,11111222
Shell,ioos:station:wmo:42873:2,2024-04-01T20:01:00Z,28.0092,-89.1630,11.0,23.1,11111222
Shell,ioos:station:wmo:42873:2,2024-04-01T20:11:00Z,28.0093,-89.1631,11.0,23.0,11111222
Shell,ioos:station:wmo:42873:2,2024-04-01T20:21:00Z,28.0092,-89.1629,11.0,23.0,11111222
Shell,ioos:station:wmo:42873:2,2024-04-01T20:31:00Z,28.0091,-89.1628,11.0,22.9,11111222
Shell,ioos:station:wmo:42873:2,2024-04-01T20:41:00Z,28.0091,-89.1627,11.0,22.9,11111222
Shell,ioos:station:wmo:42873:2,2024-04-01T20:51:00Z,28.0091,-89.1628,11.0,22.9,11111222
Shell,ioos:station:wmo:42873:2,2024-04-01T21:01:00Z,28.0090,-89.1627,11.0,22.9,11111222
Shell,ioos:station:wmo:42873:2,2024-04-01T21:11:00Z,28.0090,-89.1630,11.0,22.9,11111222
Shell,ioos:station:wmo:42873:2,2024-04-01T21:21:00Z,28.0089,-89.1629,11.0,22.9,11111222
Shell,ioos:station:wmo:42873:2,2024-04-01T21:31:00Z,28.0092,-89.1629,11.0,22.8,11111222
Shell,ioos:station:wmo:42873:2,2024-04-01T21:41:00Z,28.0095,-89.1629,11.0,22.8,11111222
Shell,ioos:station:wmo:42873:2,2024-04-01T21:51:00Z,28.0091,-89.1628,11.0,22.7,11111222
Shell,ioos:station:wmo:42873:2,2024-04-01T22:01:00Z,28.0091,-89.1627,11.0,22.7,11111222
Shell,ioos:station:wmo:42873:2,2024-04-01T22:11:00Z,28.0238,-89.1298,11.0,22.7,11111222
Shell,ioos:station:wmo:42873:2,2024-04-01T22:21:00Z,28.0089,-89.1628,11.0,22.7,11111222
Shell,ioos:station:wmo:42873:2,2024-04-01T22:31:00Z,28.0089,-89.1627,11.0,22.6,11111222
Shell,ioos:station:wmo:42873:2,2024-04-01T22:41:00Z,28.0090,-89.1628,11.0,22.6,11111222
Shell,ioos:station:wmo:42873:2,2024-04-01T22:51:00Z,28.0090,-89.1629,11.0,22.6,11111222
Shell,ioos:station:wmo:42873:2,2024-04-01T23:01:00Z,28.0091,-89.1628,11.0,22.5,11111222
Shell,ioos:station:wmo:42873:2,2024-04-01T23:11:00Z,28.0089,-89.1630,11.0,22.6,11111222
Shell,ioos:station:wmo:42873:2,2024-04-01T23:21:00Z,28.0089,-89.1630,11.0,22.5,11111222
Shell,ioos:station:wmo:42873:2,2024-04-01T23:31:00Z,28.0090,-89.1629,11.0,22.5,11111222
Shell,ioos:station:wmo:42873:2,2024-04-01T23:41:00Z,28.0088,-89.1630,11.0,22.5,11111222
Shell,ioos:station:wmo:42873:2,2024-04-01T23:51:00Z,28.0090,-89.1628,11.0,22.5,11111222
Shell,ioos:station:wmo:42873:2,2024-04-02T00:01:00Z,28.0091,-89.1627,11.0,22.4,11111222
Shell,ioos:station:wmo:42873:2,2024-04-02T00:11:00Z,28.0090,-89.1628,11.0,22.4,11111222
Shell,ioos:station:wmo:42873:2,2024-04-02T00:21:00Z,28.0091,-89.1629,11.0,22.4,11111222
Shell,ioos:station:wmo:42873:2,2024-04-02T00:31:00Z,28.0091,-89.1628,11.0,22.4,11111222
Shell,ioos:station:wmo:42873:2,2024-04-02T00:41:00Z,28.0090,-89.1628,11.0,22.3,11111222
Shell,ioos:station:wmo:42873:2,2024-04-02T00:51:00Z,28.0090,-89.1629,11.0,22.3,11111222
Shell,ioos:station:wmo:42873:2,2024-04-02T01:01:00Z,28.0090,-89.1629,11.0,22.2,11111222
Shell,ioos:station:wmo:42873:2,2024-04-02T01:11:00Z,28.0090,-89.1626,11.0,22.2,11111222
Shell,ioos:station:wmo:42873:2,2024-04-02T01:21:00Z,28.0088,-89.1627,11.0,22.1,11111222
Shell,ioos:station:wmo:42873:2,2024-04-02T01:31:00Z,28.0091,-89.1630,11.0,22.2,11111222
Shell,ioos:station:wmo:42873:2,2024-04-02T01:41:00Z,28.0090,-89.1629,11.0,22.1,11111222
Shell,ioos:station:wmo:42873:2,2024-04-02T01:51:00Z,28.0090,-89.1630,11.0,22.1,11111222
Shell,ioos:station:wmo:42873:2,2024-04-02T02:01:00Z,28.0089,-89.1627,11.0,22.1,11111222
Shell,ioos:station:wmo:42873:2,2024-04-02T02:11:00Z,28.0090,-89.1625,11.0,22.0,11111222
Shell,ioos:station:wmo:42873:2,2024-04-02T02:21:00Z,28.0090,-89.1629,11.0,22.0,11111222
Shell,ioos:station:wmo:42873:2,2024-04-02T02:31:00Z,28.0090,-89.1625,11.0,21.9,11111222
Shell,ioos:station:wmo:42873:2,2024-04-02T02:41:00Z,28.0089,-89.1627,11.0,21.9,11111222
Shell,ioos:station:wmo:42873:2,2024-04-02T02:51:00Z,28.0089,-89.1629,11.0,21.8,11111222
Shell,ioos:station:wmo:42873:2,2024-04-02T03:01:00Z,28.0089,-89.1627,11.0,21.9,11111222
Shell,ioos:station:wmo:42873:2,2024-04-02T03:11:00Z,28.0090,-89.1629,11.0,21.8,11111222
Shell,ioos:station:wmo:42873:2,2024-04-02T03:21:00Z,28.0090,-89.1628,11.0,21.8,11111222
Shell,ioos:station:wmo:42873:2,2024-04-02T03:31:00Z,28.0090,-89.1627,11.0,21.8,11111222
Shell,ioos:station:wmo:42873:2,2024-04-02T03:41:00Z,28.0090,-89.1627,11.0,21.9,11111222
Shell,ioos:station:wmo:42873:2,2024-04-02T03:51:00Z,28.0090,-89.1628,11.0,21.9,11111222
Shell,ioos:station:wmo:42873:2,2024-04-02T04:01:00Z,28.0090,-89.1632,11.0,21.9,11111222
Shell,ioos:station:wmo:42873:2,2024-04-02T04:11:00Z,28.0086,-89.1622,11.0,21.9,11111222
Shell,ioos:station:wmo:42873:2,2024-04-02T04:21:00Z,28.0089,-89.1625,11.0,21.9,11111222
Shell,ioos:station:wmo:42873:2,2024-04-02T04:31:00Z,28.0090,-89.1627,11.0,21.9,11111222
Shell,ioos:station:wmo:42873:2,2024-04-02T04:41:00Z,28.0089,-89.1627,11.0,21.9,11111222
Shell,ioos:station:wmo:42873:2,2024-04-02T04:51:00Z,28.0090,-89.1627,11.0,21.9,11111222
Shell,ioos:station:wmo:42873:2,2024-04-02T05:01:00Z,28.0090,-89.1627,11.0,22.0,11111222
Shell,ioos:station:wmo:42873:2,2024-04-02T05:11:00Z,28.0090,-89.1627,11.0,22.0,11111222
Shell,ioos:station:wmo:42873:2,2024-04-02T05:21:00Z,28.0090,-89.1629,11.0,22.0,11111222
Shell,ioos:station:wmo:42873:2,2024-04-02T05:31:00Z,28.0090,-89.1628,11.0,22.1,11111222
Shell,ioos:station:wmo:42873:2,2024-04-02T05:41:00Z,28.0090,-89.1627,11.0,22.1,11111222
Shell,ioos:station:wmo:42873:2,2024-04-02T05:51:00Z,28.0090,-89.1629,11.0,22.1,11111222
Shell,ioos:station:wmo:42873:2,2024-04-02T06:01:00Z,28.0090,-89.1627,11.0,22.2,11111222
Shell,ioos:station:wmo:42873:2,2024-04-02T06:11:00Z,28.0090,-89.1627,11.0,22.2,11111222
Shell,ioos:station:wmo:42873:2,2024-04-02T06:21:00Z,28.0090,-89.1628,11.0,22.2,11111222
Shell,ioos:station:wmo:42873:2,2024-04-02T06:31:00Z,28.0090,-89.1630,11.0,22.2,11111222
Shell,ioos:station:wmo:42873:2,2024-04-02T06:41:00Z,28.0090,-89.1629,11.0,22.2,11111222
Shell,ioos:station:wmo:42873:2,2024-04-02T06:51:00Z,28.0090,-89.1628,11.0,22.1,11111222
Shell,ioos:station:wmo:42873:2,2024-04-02T07:01:00Z,28.0090,-89.1627,11.0,22.1,11111222
Shell,ioos:station:wmo:42873:2,2024-04-02T07:11:00Z,28.0090,-89.1629,11.0,22.1,11111222
Shell,ioos:station:wmo:42873:2,2024-04-02T07:21:00Z,28.0090,-89.1629,11.0,22.1,11111222
Shell,ioos:station:wmo:42873:2,2024-04-02T07:31:00Z,28.0089,-89.1628,11.0,22.1,11111222
Shell,ioos:station:wmo:42873:2,2024-04-02T07:41:00Z,28.0088,-89.1629,11.0,22.1,11111222
Shell,ioos:station:wmo:42873:2,2024-04-02T07:51:00Z,28.0089,-89.1627,11.0,22.0,11111222
Shell,ioos:station:wmo:42873:2,2024-04-02T08:01:00Z,28.0090,-89.1628,11.0,22.0,11111222
Shell,ioos:station:wmo:42873:2,2024-04-02T08:11:00Z,28.0090,-89.1627,11.0,22.1,11111222
Shell,ioos:station:wmo:42873:2,2024-04-02T08:21:00Z,28.0089,-89.1627,11.0,22.1,11111222
Shell,ioos:station:wmo:42873:2,2024-04-02T08:31:00Z,28.0090,-89.1626,11.0,22.1,11111222
Shell,ioos:station:wmo:42873:2,2024-04-02T08:41:00Z,28.0090,-89.1627,11.0,22.1,11111222
Shell,ioos:station:wmo:42873:2,2024-04-02T08:51:00Z,28.0090,-89.1627,11.0,22.1,11111222
Shell,ioos:station:wmo:42873:2,2024-04-02T09:01:00Z,28.0090,-89.1620,11.0,22.0,11111222
Shell,ioos:station:wmo:42873:2,2024-04-02T09:11:00Z,28.0090,-89.1623,11.0,22.0,11111222
Shell,ioos:station:wmo:42873:2,2024-04-02T09:21:00Z,28.0090,-89.1625,11.0,22.1,11111222
Shell,ioos:station:wmo:42873:2,2024-04-02T09:31:00Z,28.0089,-89.1628,11.0,22.2,11111222
Shell,ioos:station:wmo:42873:2,2024-04-02T09:41:00Z,28.0089,-89.1628,11.0,22.2,11111222
Shell,ioos:station:wmo:42873:2,2024-04-02T09:51:00Z,28.0093,-89.1621,11.0,22.3,11111222
Shell,ioos:station:wmo:42873:2,2024-04-02T10:01:00Z,28.0091,-89.1626,11.0,22.2,11111222
Shell,ioos:station:wmo:42873:2,2024-04-02T10:11:00Z,28.0020,-89.1615,11.0,22.2,11111222
Shell,ioos:station:wmo:42873:2,2024-04-02T10:21:00Z,28.0043,-89.1616,11.0,22.2,11111222
Shell,ioos:station:wmo:42873:2,2024-04-02T10:31:00Z,28.0090,-89.1628,11.0,22.2,11111222
Shell,ioos:station:wmo:42873:2,2024-04-02T10:41:00Z,28.0090,-89.1629,11.0,22.3,11111222
Shell,ioos:station:wmo:42873:2,2024-04-02T10:51:00Z,28.0090,-89.1627,11.0,22.3,11111222
Shell,ioos:station:wmo:42873:2,2024-04-02T11:01:00Z,28.0090,-89.1628,11.0,22.3,11111222
Shell,ioos:station:wmo:42873:2,2024-04-02T11:11:00Z,28.0089,-89.1629,11.0,22.2,11111222
Shell,ioos:station:wmo:42873:2,2024-04-02T11:21:00Z,28.0089,-89.1630,11.0,22.2,11111222
Shell,ioos:station:wmo:42873:2,2024-04-02T11:31:00Z,28.0090,-89.1619,11.0,22.3,11111222
Shell,ioos:station:wmo:42873:2,2024-04-02T11:41:00Z,28.0090,-89.1633,11.0,22.3,11111222
Shell,ioos:station:wmo:42873:2,2024-04-02T11:51:00Z,28.0088,-89.1634,11.0,22.3,11111222
Shell,ioos:station:wmo:42873:2,2024-04-02T12:01:00Z,28.0088,-89.1635,11.0,22.4,11111222
Shell,ioos:station:wmo:42873:2,2024-04-02T12:11:00Z,28.0090,-89.1627,11.0,22.4,11111222
Shell,ioos:station:wmo:42873:2,2024-04-02T12:21:00Z,28.0090,-89.1631,11.0,22.5,11111222
Shell,ioos:station:wmo:42873:2,2024-04-02T12:31:00Z,28.0091,-89.1629,11.0,22.5,11111222
Shell,ioos:station:wmo:42873:2,2024-04-02T12:41:00Z,28.0090,-89.1630,11.0,22.6,11111222
Shell,ioos:station:wmo:42873:2,2024-04-02T12:51:00Z,28.0089,-89.1635,11.0,22.7,11111222
Shell,ioos:station:wmo:42873:2,2024-04-02T13:01:00Z,28.0090,-89.1619,11.0,22.7,11111222
Shell,ioos:station:wmo:42873:2,2024-04-02T13:11:00Z,28.0093,-89.1646,11.0,22.7,11111222
Shell,ioos:station:wmo:42873:2,2024-04-02T13:21:00Z,28.0093,-89.1645,11.0,22.8,11111222
Shell,ioos:station:wmo:42873:2,2024-04-02T13:31:00Z,28.0072,-89.1531,11.0,22.8,11111222
Shell,ioos:station:wmo:42873:2,2024-04-02T13:41:00Z,28.0090,-89.1624,11.0,22.8,11111222
Shell,ioos:station:wmo:42873:2,2024-04-02T13:51:00Z,28.0090,-89.1623,11.0,22.9,11111222
Shell,ioos:station:wmo:42873:2,2024-04-02T14:01:00Z,28.0089,-89.1617,11.0,22.9,11111222
Shell,ioos:station:wmo:42873:2,2024-04-02T14:11:00Z,28.0091,-89.1627,11.0,22.9,11111222
Shell,ioos:station:wmo:42873:2,2024-04-02T14:21:00Z,28.0090,-89.1628,11.0,22.9,11111222
Shell,ioos:station:wmo:42873:2,2024-04-02T14:31:00Z,28.0090,-89.1628,11.0,23.0,11111222
Shell,ioos:station:wmo:42873:2,2024-04-02T14:41:00Z,28.0091,-89.1629,11.0,23.0,11111222
Shell,ioos:station:wmo:42873:2,2024-04-02T14:51:00Z,28.0090,-89.1628,11.0,23.1,11111222
Shell,ioos:station:wmo:42873:2,2024-04-02T15:01:00Z,28.0091,-89.1627,11.0,23.1,11111222
Shell,ioos:station:wmo:42873:2,2024-04-02T15:11:00Z,28.0090,-89.1627,11.0,23.1,11111222
Shell,ioos:station:wmo:42873:2,2024-04-02T15:21:00Z,28.0090,-89.1627,11.0,23.2,11111222
Shell,ioos:station:wmo:42873:2,2024-04-02T15:31:00Z,28.0091,-89.1629,11.0,23.2,11111222
Shell,ioos:station:wmo:42873:2,2024-04-02T15:41:00Z,28.0091,-89.1626,11.0,23.2,11111222
Shell,ioos:station:wmo:42873:2,2024-04-02T15:51:00Z,28.0091,-89.1627,11.0,23.3,11111222
Shell,ioos:station:wmo:42873:2,2024-04-02T16:01:00Z,28.0090,-89.1629,11.0,23.2,11111222
Shell,ioos:station:wmo:42873:2,2024-04-02T16:11:00Z,28.0093,-89.1628,11.0,23.2,11111222
Shell,ioos:station:wmo:42873:2,2024-04-02T16:21:00Z,28.0091,-89.1626,11.0,23.2,11111222
Shell,ioos:station:wmo:42873:2,2024-04-02T16:31:00Z,28.0093,-89.1628,11.0,23.2,11111222
Shell,ioos:station:wmo:42873:2,2024-04-02T16:41:00Z,28.0092,-89.1627,11.0,23.2,11111222
Shell,ioos:station:wmo:42873:2,2024-04-02T16:51:00Z,28.0092,-89.1627,11.0,23.2,11111222
Shell,ioos:station:wmo:42873:2,2024-04-02T17:01:00Z,28.0092,-89.1626,11.0,23.3,11111222
Shell,ioos:station:wmo:42873:2,2024-04-02T17:11:00Z,28.0092,-89.1627,11.0,23.3,11111222
Shell,ioos:station:wmo:42873:2,2024-04-02T17:21:00Z,28.0091,-89.1626,11.0,23.3,11111222
Shell,ioos:station:wmo:42873:2,2024-04-02T17:31:00Z,28.0091,-89.1626,11.0,23.3,11111222
Shell,ioos:station:wmo:42873:2,2024-04-02T17:41:00Z,28.0093,-89.1627,11.0,23.3,11111222
Shell,ioos:station:wmo:42873:2,2024-04-02T17:51:00Z,28.0093,-89.1628,11.0,23.4,11111222
Shell,ioos:station:wmo:42873:2,2024-04-02T18:01:00Z,28.0092,-89.1627,11.0,23.4,11111222
Shell,ioos:station:wmo:42873:2,2024-04-02T18:11:00Z,28.0092,-89.1627,11.0,23.4,11111222
Shell,ioos:station:wmo:42873:2,2024-04-02T18:21:00Z,28.0092,-89.1627,11.0,23.4,11111222
Shell,ioos:station:wmo:42873:2,2024-04-02T18:31:00Z,28.0093,-89.1627,11.0,23.4,11111222
Shell,ioos:station:wmo:42873:2,2024-04-02T18:41:00Z,28.0095,-89.1627,11.0,23.4,11111222
Shell,ioos:station:wmo:42873:2,2024-04-02T18:51:00Z,28.0093,-89.1628,11.0,23.5,11111222
Shell,ioos:station:wmo:42873:2,2024-04-02T19:01:00Z,28.0091,-89.1626,11.0,23.5,11111222
Shell,ioos:station:wmo:42873:2,2024-04-02T19:11:00Z,28.0091,-89.1626,11.0,23.4,11111222
Shell,ioos:station:wmo:42873:2,2024-04-02T19:21:00Z,28.0090,-89.1626,11.0,23.4,11111222
Shell,ioos:station:wmo:42873:2,2024-04-02T19:31:00Z,28.0090,-89.1626,11.0,23.5,11111222
Shell,ioos:station:wmo:42873:2,2024-04-02T19:41:00Z,28.0091,-89.1626,11.0,23.5,11111222
Shell,ioos:station:wmo:42873:2,2024-04-02T19:51:00Z,28.0092,-89.1627,11.0,23.4,11111222
Shell,ioos:station:wmo:42873:2,2024-04-02T20:01:00Z,28.0092,-89.1627,11.0,23.4,11111222
Shell,ioos:station:wmo:42873:2,2024-04-02T20:11:00Z,28.0092,-89.1627,11.0,23.4,11111222
Shell,ioos:station:wmo:42873:2,2024-04-02T20:21:00Z,28.0092,-89.1628,11.0,23.4,11111222
Shell,ioos:station:wmo:42873:2,2024-04-02T20:31:00Z,28.0092,-89.1628,11.0,23.3,11111222